Location: Waco, TX
(31.5480°N, 97.1670°W)
Time: 17:57:22
(UTC-06:00)

ISS - Pass Details

Date: 15 January 2019
Orbit: 404 x 410 km, 51.6° (Epoch: 24 January)

Event Time Altitude Azimuth Distance (km) Brightness Sun altitude
Rises 04:41:56 0° 327° (NNW) 2,340 - -35.0°
Reaches altitude 10° 04:44:18 10° 342° (NNW) 1,475 - -34.5°
Maximum altitude 04:47:02 24° 38° (NE) 905 - -34.0°
Drops below altitude 10° 04:49:46 10° 94° (E) 1,468 - -33.4°
Exits shadow 04:50:07 - 97° (E) 1,584 0.0 -33.3°
Sets 04:52:06 0° 109° (ESE) 2,324 1.1 -32.9°
